Tracking 28790 objects as of 19-Apr-2024
HD Live streaming from Space Station
objects crossing your sky now

CZ-3C DEB

Track CZ-3C DEB now!
10-day predictions


NORAD ID: 40171
Int'l Code: 2010-057Z
Perigee: 416.2 km
Apogee: 11,962.2 km
Inclination: 21.8 °
Period: 233.5 minutes
Semi major axis: 12560 km
RCS: Unknown
Launch date: October 31, 2010
Source: People's Republic of China (PRC)
Launch site: Xichang Space Center, China (XSC)

Note: This is SATELLITE DEBRIS
Your satellite tracking list
Your tracking list is empty




NASA's NSSDC Master Catalog

Two Line Element Set (TLE):
1 40171U 10057Z   24108.82537102  .00052118  00000-0  28203-1 0  9992
2 40171  21.8222 175.2147 4596251 214.0123 105.5536  6.16750165159607
Source of the keplerian elements: AFSPC